Tracking 29892 objects as of 21-Nov-2024
HD Live streaming from Space Station
objects crossing your sky now

STARLINK-31355

Track STARLINK-31355 now!
10-day predictions
STARLINK-31355 is classified as:


NORAD ID: 58978
Int'l Code: 2024-031P
Perigee: 481.3 km
Apogee: 483.4 km
Inclination: 53.2 °
Period: 94.1 minutes
Semi major axis: 6853 km
RCS: Unknown
Launch date: February 15, 2023
Source: United States (US)
Launch site: AIR FORCE WESTERN TEST RANGE (AFWTR)
Your satellite tracking list
Your tracking list is empty




NASA's NSSDC Master Catalog

Two Line Element Set (TLE):
1 58978U 24031P   24324.34102972  .00000623  00000-0  33182-4 0  9992
2 58978  53.1604 344.7482 0001488 100.2371 259.8797 15.30198424 43781
Source of the keplerian elements: AFSPC